Location: Nasgenstadt
(48.2786°N, 9.7553°E)
Time: 15:57:25
(UTC+02:00)

ISS - Pass Details

Date: 22 May 2021
Orbit: 419 x 422 km, 51.6° (Epoch: 25 June)

Event Time Altitude Azimuth Distance (km) Brightness Sun altitude
Rises 01:13:23 0° 292° (WNW) 2,375 0.4 -21.3°
Reaches altitude 10° 01:15:31 10° 288° (WNW) 1,509 -0.7 -21.3°
Enters shadow 01:16:59 23° 279° (W) 945 -1.9 -21.3°
